TGL25C TNCM-TFFR

Flight info

Callsign TGL25C
Flight time 0h 37m
Altitude 17000
Route MODOR2 ZPATA A517 BIMBO BIMBO2Z
Aircraft A320/M-SDE3FGHIRWY/LB1

Departure

Time 2026-05-07 06:40
Airport Princess Juliana International Airport (TNCM)

Arrival

Time 2026-05-07 07:17
Airport Maryse Condé International Airport (TFFR)
Time Latitude Longitude Altitude Speed Heading
2026-05-07 06:01 18.04331 -63.11363 29 ft 0 kts 352°
2026-05-07 06:21 18.04331 -63.11362 29 ft 0 kts 352°
2026-05-07 06:32 18.04323 -63.11361 27 ft 3 kts 352°
2026-05-07 06:32 18.04303 -63.11358 30 ft 3 kts 351°
2026-05-07 06:32 18.04283 -63.11355 29 ft 3 kts 348°
2026-05-07 06:32 18.04263 -63.11350 29 ft 3 kts 338°
2026-05-07 06:33 18.04252 -63.11344 29 ft 3 kts 318°
2026-05-07 06:33 18.04243 -63.11333 29 ft 2 kts 261°
2026-05-07 06:33 18.04243 -63.11331 29 ft 0 kts 259°
2026-05-07 06:36 18.04243 -63.11332 29 ft 1 kts 259°
2026-05-07 06:36 18.04238 -63.11360 29 ft 7 kts 259°
2026-05-07 06:36 18.04226 -63.11430 29 ft 12 kts 260°
2026-05-07 06:37 18.04191 -63.11516 28 ft 13 kts 230°
2026-05-07 06:37 18.04138 -63.11584 28 ft 11 kts 232°
2026-05-07 06:37 18.04091 -63.11647 28 ft 11 kts 231°
2026-05-07 06:37 18.04061 -63.11713 28 ft 10 kts 261°
2026-05-07 06:38 18.04046 -63.11805 27 ft 15 kts 260°
2026-05-07 06:38 18.04038 -63.11858 27 ft 0 kts 260°
2026-05-07 06:38 18.04030 -63.11885 28 ft 12 kts 251°
2026-05-07 06:39 18.03956 -63.11968 27 ft 16 kts 184°
2026-05-07 06:39 18.03949 -63.11899 27 ft 11 kts 77°
2026-05-07 06:39 18.03952 -63.11882 27 ft 0 kts 79°
2026-05-07 06:39 18.03968 -63.11778 28 ft 48 kts 82°
2026-05-07 06:40 18.04052 -63.11184 28 ft 114 kts 81°
2026-05-07 06:40 18.04195 -63.10180 76 ft 159 kts 82°
2026-05-07 06:40 18.04351 -63.09014 701 ft 160 kts 85°
2026-05-07 06:40 18.03996 -63.07916 1322 ft 171 kts 130°
2026-05-07 06:41 18.02868 -63.07334 1633 ft 198 kts 174°
2026-05-07 06:41 18.01401 -63.07404 1865 ft 224 kts 181°
2026-05-07 06:41 17.99756 -63.07513 2293 ft 249 kts 181°
2026-05-07 06:41 17.97963 -63.07624 2919 ft 264 kts 181°
2026-05-07 06:42 17.96106 -63.07734 3773 ft 270 kts 181°
2026-05-07 06:42 17.94217 -63.07839 4701 ft 273 kts 181°
2026-05-07 06:42 17.92305 -63.07942 5576 ft 277 kts 182°
2026-05-07 06:42 17.90372 -63.08044 6448 ft 280 kts 182°
2026-05-07 06:43 17.88411 -63.08143 7244 ft 284 kts 182°
2026-05-07 06:43 17.86426 -63.08111 8008 ft 289 kts 167°
2026-05-07 06:43 17.84610 -63.07227 8760 ft 292 kts 140°
2026-05-07 06:43 17.83103 -63.05781 9548 ft 295 kts 140°
2026-05-07 06:44 17.81406 -63.04542 10269 ft 301 kts 147°
2026-05-07 06:44 17.79564 -63.03333 10539 ft 324 kts 148°
2026-05-07 06:44 17.77583 -63.02066 10876 ft 341 kts 148°
2026-05-07 06:44 17.75527 -63.00777 11477 ft 347 kts 149°
2026-05-07 06:45 17.73433 -62.99478 12155 ft 351 kts 149°
2026-05-07 06:45 17.71314 -62.98168 12824 ft 356 kts 149°
2026-05-07 06:45 17.69171 -62.96844 13515 ft 359 kts 149°
2026-05-07 06:45 17.67006 -62.95506 14123 ft 364 kts 149°
2026-05-07 06:46 17.64841 -62.94168 14644 ft 369 kts 149°
2026-05-07 06:46 17.62623 -62.92794 15229 ft 372 kts 149°
2026-05-07 06:46 17.60387 -62.91405 15838 ft 375 kts 149°
2026-05-07 06:46 17.58133 -62.90007 16409 ft 379 kts 149°
2026-05-07 06:47 17.55819 -62.88578 16937 ft 384 kts 149°
2026-05-07 06:47 17.53540 -62.87171 17078 ft 384 kts 149°
2026-05-07 06:47 17.51285 -62.85774 17112 ft 372 kts 149°
2026-05-07 06:47 17.49070 -62.84400 17111 ft 368 kts 149°
2026-05-07 06:48 17.46859 -62.83048 17104 ft 368 kts 151°
2026-05-07 06:48 17.44595 -62.81802 17100 ft 367 kts 153°
2026-05-07 06:48 17.42293 -62.80645 17077 ft 367 kts 155°
2026-05-07 06:48 17.39977 -62.79531 17092 ft 366 kts 155°
2026-05-07 06:49 17.37657 -62.78424 17092 ft 366 kts 155°
2026-05-07 06:49 17.35344 -62.77307 17082 ft 366 kts 154°
2026-05-07 06:49 17.33036 -62.76176 17089 ft 366 kts 154°
2026-05-07 06:49 17.30762 -62.74984 17083 ft 365 kts 148°
2026-05-07 06:50 17.28732 -62.73396 17079 ft 364 kts 136°
2026-05-07 06:50 17.27013 -62.71457 17081 ft 364 kts 130°
2026-05-07 06:50 17.25343 -62.69471 17080 ft 364 kts 130°
2026-05-07 06:50 17.23665 -62.67487 17074 ft 364 kts 130°
2026-05-07 06:51 17.21982 -62.65510 17075 ft 364 kts 130°
2026-05-07 06:51 17.20295 -62.63532 17072 ft 364 kts 130°
2026-05-07 06:51 17.18609 -62.61553 17073 ft 364 kts 130°
2026-05-07 06:51 17.16924 -62.59574 17077 ft 364 kts 130°
2026-05-07 06:52 17.15240 -62.57596 17074 ft 364 kts 130°
2026-05-07 06:52 17.13556 -62.55615 17075 ft 364 kts 130°
2026-05-07 06:52 17.11875 -62.53635 17076 ft 364 kts 130°
2026-05-07 06:52 17.10193 -62.51658 17073 ft 364 kts 130°
2026-05-07 06:53 17.08508 -62.49682 17070 ft 364 kts 130°
2026-05-07 06:53 17.06825 -62.47703 17083 ft 364 kts 130°
2026-05-07 06:53 17.05143 -62.45725 17083 ft 364 kts 130°
2026-05-07 06:53 17.03460 -62.43747 17074 ft 364 kts 130°
2026-05-07 06:54 17.01778 -62.41772 17074 ft 364 kts 130°
2026-05-07 06:54 17.00097 -62.39797 17078 ft 364 kts 130°
2026-05-07 06:54 16.98414 -62.37821 17074 ft 364 kts 130°
2026-05-07 06:54 16.96728 -62.35845 17074 ft 364 kts 130°
2026-05-07 06:55 16.95044 -62.33872 17073 ft 364 kts 130°
2026-05-07 06:55 16.93361 -62.31902 17071 ft 364 kts 130°
2026-05-07 06:55 16.91676 -62.29929 17073 ft 364 kts 130°
2026-05-07 06:55 16.89994 -62.27958 17080 ft 364 kts 130°
2026-05-07 06:56 16.88310 -62.25987 17073 ft 364 kts 130°
2026-05-07 06:56 16.86626 -62.24015 17070 ft 363 kts 130°
2026-05-07 06:56 16.84944 -62.22044 17068 ft 363 kts 130°
2026-05-07 06:56 16.83265 -62.20075 17075 ft 364 kts 130°
2026-05-07 06:57 16.81579 -62.18102 17074 ft 364 kts 130°
2026-05-07 06:57 16.79896 -62.16131 17072 ft 364 kts 130°
2026-05-07 06:57 16.78211 -62.14161 17067 ft 364 kts 130°
2026-05-07 06:57 16.76524 -62.12193 17074 ft 364 kts 130°
2026-05-07 06:58 16.74836 -62.10224 17067 ft 364 kts 130°
2026-05-07 06:58 16.73147 -62.08253 17065 ft 364 kts 130°
2026-05-07 06:58 16.71457 -62.06285 17060 ft 364 kts 130°
2026-05-07 06:58 16.69768 -62.04321 17070 ft 364 kts 130°
2026-05-07 06:59 16.68081 -62.02357 17068 ft 364 kts 130°
2026-05-07 06:59 16.66394 -62.00387 17071 ft 363 kts 130°
2026-05-07 06:59 16.64664 -61.98470 17067 ft 364 kts 137°
2026-05-07 06:59 16.62602 -61.96936 17067 ft 365 kts 150°
2026-05-07 07:00 16.60249 -61.95939 17075 ft 366 kts 165°
2026-05-07 07:00 16.57739 -61.95516 17072 ft 366 kts 175°
2026-05-07 07:00 16.55200 -61.95269 17068 ft 366 kts 174°
2026-05-07 07:00 16.52663 -61.95011 17068 ft 367 kts 174°
2026-05-07 07:01 16.50122 -61.94748 17068 ft 367 kts 174°
2026-05-07 07:01 16.47583 -61.94483 17067 ft 367 kts 174°
2026-05-07 07:01 16.45077 -61.94220 17034 ft 365 kts 174°
2026-05-07 07:01 16.42574 -61.93959 16784 ft 358 kts 174°
2026-05-07 07:02 16.40111 -61.93704 16453 ft 354 kts 174°
2026-05-07 07:02 16.37717 -61.93176 16091 ft 351 kts 158°
2026-05-07 07:02 16.35610 -61.91954 15725 ft 346 kts 140°
2026-05-07 07:02 16.33981 -61.90147 15356 ft 341 kts 122°
2026-05-07 07:03 16.32960 -61.87953 15011 ft 335 kts 104°
2026-05-07 07:03 16.32471 -61.85595 14664 ft 331 kts 99°
2026-05-07 07:03 16.32036 -61.83245 14311 ft 330 kts 98°
2026-05-07 07:03 16.31598 -61.80904 13976 ft 329 kts 99°
2026-05-07 07:04 16.31159 -61.78576 13616 ft 327 kts 98°
2026-05-07 07:04 16.30720 -61.76256 13237 ft 326 kts 99°
2026-05-07 07:04 16.30284 -61.73948 12861 ft 324 kts 99°
2026-05-07 07:04 16.29849 -61.71647 12490 ft 323 kts 99°
2026-05-07 07:05 16.29417 -61.69360 12121 ft 321 kts 99°
2026-05-07 07:05 16.28987 -61.67083 11759 ft 320 kts 99°
2026-05-07 07:05 16.28559 -61.64820 11401 ft 318 kts 100°
2026-05-07 07:05 16.28135 -61.62574 11047 ft 315 kts 100°
2026-05-07 07:06 16.27713 -61.60341 10697 ft 313 kts 99°
2026-05-07 07:06 16.27343 -61.58118 10348 ft 310 kts 92°
2026-05-07 07:06 16.27678 -61.55938 10004 ft 305 kts 66°
2026-05-07 07:06 16.28895 -61.54169 9613 ft 301 kts 39°
2026-05-07 07:07 16.30715 -61.53159 9249 ft 297 kts 13°
2026-05-07 07:07 16.32750 -61.53092 8961 ft 292 kts 347°
2026-05-07 07:07 16.34565 -61.53906 8832 ft 281 kts 324°
2026-05-07 07:07 16.35854 -61.55368 8707 ft 272 kts 300°
2026-05-07 07:08 16.36446 -61.57184 8581 ft 262 kts 277°
2026-05-07 07:08 16.36513 -61.59048 8455 ft 253 kts 274°
2026-05-07 07:08 16.36795 -61.60820 8330 ft 246 kts 288°
2026-05-07 07:08 16.37451 -61.62451 8210 ft 244 kts 301°
2026-05-07 07:09 16.38431 -61.63877 8094 ft 241 kts 314°
2026-05-07 07:09 16.39669 -61.65043 7960 ft 240 kts 322°
2026-05-07 07:09 16.40882 -61.66207 7748 ft 241 kts 309°
2026-05-07 07:09 16.41717 -61.67746 7435 ft 244 kts 290°
2026-05-07 07:10 16.42021 -61.69461 7098 ft 247 kts 271°
2026-05-07 07:10 16.41767 -61.71247 6670 ft 254 kts 252°
2026-05-07 07:10 16.40922 -61.72888 6186 ft 262 kts 232°
2026-05-07 07:10 16.39558 -61.74143 5761 ft 260 kts 213°
2026-05-07 07:11 16.38023 -61.75123 5281 ft 257 kts 209°
2026-05-07 07:11 16.36487 -61.75954 5179 ft 239 kts 205°
2026-05-07 07:11 16.35003 -61.76627 5106 ft 228 kts 198°
2026-05-07 07:11 16.33492 -61.76798 5019 ft 215 kts 163°
2026-05-07 07:12 16.32221 -61.76098 4968 ft 206 kts 134°
2026-05-07 07:12 16.31198 -61.75068 4861 ft 202 kts 127°
2026-05-07 07:12 16.30465 -61.73856 4763 ft 192 kts 110°
2026-05-07 07:12 16.30134 -61.72558 4599 ft 183 kts 99°
2026-05-07 07:13 16.29869 -61.71251 4167 ft 183 kts 100°
2026-05-07 07:13 16.29591 -61.69969 3760 ft 179 kts 100°
2026-05-07 07:13 16.29296 -61.68718 3313 ft 177 kts 102°
2026-05-07 07:13 16.28977 -61.67487 2836 ft 176 kts 103°
2026-05-07 07:14 16.28688 -61.66254 2306 ft 176 kts 99°
2026-05-07 07:14 16.28506 -61.64998 1757 ft 175 kts 92°
2026-05-07 07:14 16.28437 -61.63734 1203 ft 174 kts 89°
2026-05-07 07:14 16.28408 -61.62495 876 ft 166 kts 97°
2026-05-07 07:15 16.28127 -61.61405 788 ft 146 kts 106°
2026-05-07 07:15 16.27863 -61.60406 737 ft 141 kts 103°
2026-05-07 07:15 16.27653 -61.59423 603 ft 141 kts 101°
2026-05-07 07:15 16.27483 -61.58414 456 ft 140 kts 99°
2026-05-07 07:16 16.27317 -61.57415 326 ft 140 kts 100°
2026-05-07 07:16 16.27145 -61.56430 219 ft 140 kts 101°
2026-05-07 07:16 16.26956 -61.55434 136 ft 140 kts 101°
2026-05-07 07:16 16.26768 -61.54438 27 ft 139 kts 101°
2026-05-07 07:17 16.26604 -61.53572 26 ft 100 kts 99°
2026-05-07 07:17 16.26534 -61.53174 22 ft 66 kts 101°
2026-05-07 07:17 16.26469 -61.52832 20 ft 21 kts 102°
2026-05-07 07:17 16.26439 -61.52674 19 ft 25 kts 101°
2026-05-07 07:18 16.26415 -61.52548 20 ft 28 kts 101°
2026-05-07 07:18 16.26363 -61.52367 27 ft 17 kts 139°
2026-05-07 07:18 16.26257 -61.52375 27 ft 17 kts 199°
2026-05-07 07:18 16.26203 -61.52391 28 ft 0 kts 194°